DW4915 Mazarete ES current weather conditions

sailwx.info

Wind from 260

Air temperature 10.6° C
Dewpoint 10.6° C

Last reported at 2016-Jul-02 02:46 UTC.
Time now 2016-Jul-02 04:03 UTC

Location: N 40°58' W 002°11'.
View on Google Maps.

See reports from other nearby stations

  
Tides and Currents Weather Stations Pressure Air Temp Water Temp Dewpoint Dewpoint Depression Visibility Wind Speed Wind Dir Waves Ship Positions
date/time (UTC)wind fromknots sea level pressurealtimeterstation pressurevisibilityair tempwater tempwave heightnotes
2016-Jul-02 02:46 260 10.6
2016-Jul-02 02:41 260 10.6
2016-Jul-02 02:36 260 10.6
2016-Jul-02 02:31 260 10.6
2016-Jul-02 02:26 259 10.6
2016-Jul-02 02:21 259 10.6
2016-Jul-02 02:16 260 10.6
2016-Jul-02 02:11 259 10.6
2016-Jul-02 02:06 260 10.6
2016-Jul-02 02:01 260 10.6
2016-Jul-02 01:56 259 10.6
2016-Jul-02 01:51 258 10.6
2016-Jul-02 01:46 260 11.1
2016-Jul-02 01:41 260 11.1
2016-Jul-02 01:36 260 11.1
2016-Jul-02 01:31 261 11.1
2016-Jul-02 01:26 260 11.1
2016-Jul-02 01:21 260 11.1
2016-Jul-02 01:16 259 11.1
2016-Jul-02 01:11 259 11.7
2016-Jul-02 01:06 258 11.7
2016-Jul-02 01:01 260 11.7
2016-Jul-02 00:56 259 11.1
2016-Jul-02 00:51 262 11.1
2016-Jul-02 00:46 259 11.1
2016-Jul-02 00:36 259 11.1
2016-Jul-02 00:31 259 11.1
2016-Jul-02 00:26 260 11.1
2016-Jul-02 00:21 260 11.1
2016-Jul-02 00:16 258 11.1
2016-Jul-02 00:11 259 11.1
2016-Jul-02 00:06 259 11.1
2016-Jul-02 00:01 259 11.7
2016-Jul-01 23:56 259 11.7
2016-Jul-01 23:51 260 11.7
2016-Jul-01 23:46 260 11.7
2016-Jul-01 23:41 259 11.7
2016-Jul-01 23:36 260 11.7
2016-Jul-01 23:31 260 11.7
2016-Jul-01 23:26 260 12.2
2016-Jul-01 23:21 260 12.2
2016-Jul-01 23:16 259 12.2
2016-Jul-01 23:11 259 12.2
2016-Jul-01 23:06 259 12.2
2016-Jul-01 23:01 259 12.2
2016-Jul-01 22:56 259 12.2
2016-Jul-01 22:51 259 12.2
2016-Jul-01 22:46 260 12.2
2016-Jul-01 22:41 260 12.2
2016-Jul-01 22:36 260 12.2
2016-Jul-01 22:31 260 12.8
2016-Jul-01 22:26 260 12.8
2016-Jul-01 22:21 260 12.8
2016-Jul-01 22:16 259 12.8
2016-Jul-01 22:06 259 13.3
2016-Jul-01 22:01 259 13.3
2016-Jul-01 21:56 259 13.3
2016-Jul-01 21:51 259 13.3
2016-Jul-01 21:41 260 13.3
2016-Jul-01 21:36 259 13.9
2016-Jul-01 21:31 260 13.9
2016-Jul-01 21:26 259 13.9
2016-Jul-01 21:21 259 13.9
2016-Jul-01 21:16 259 14.4
2016-Jul-01 21:06 260 14.4
2016-Jul-01 21:01 259 15.0
2016-Jul-01 20:56 260 15.0
2016-Jul-01 20:51 260 15.0
2016-Jul-01 20:46 260 15.6
2016-Jul-01 20:41 260 15.6
2016-Jul-01 20:36 259 16.1
2016-Jul-01 20:26 260 16.7
2016-Jul-01 20:21 259 16.7
2016-Jul-01 20:16 260 17.2
2016-Jul-01 20:06 259 17.8
2016-Jul-01 20:01 259 18.3
2016-Jul-01 19:56 259 18.9
2016-Jul-01 19:46 259 20.0
2016-Jul-01 19:41 260 20.6
2016-Jul-01 19:36 259 21.7
2016-Jul-01 19:26 259 22.8
2016-Jul-01 19:21 260 23.9
2016-Jul-01 19:11 260 25.0
2016-Jul-01 19:06 259 25.0
2016-Jul-01 19:01 260 25.6
2016-Jul-01 18:56 260 25.6
2016-Jul-01 18:46 259 26.1
2016-Jul-01 18:41 260 26.1
2016-Jul-01 18:31 259 26.7
2016-Jul-01 18:26 259 27.2
2016-Jul-01 18:21 259 27.2
2016-Jul-01 18:16 258 27.8
2016-Jul-01 18:11 260 27.8
2016-Jul-01 18:06 258 27.8
2016-Jul-01 18:01 259 27.8
2016-Jul-01 17:56 260 28.3
2016-Jul-01 17:51 273 28.3
2016-Jul-01 17:46 273 28.3
2016-Jul-01 17:41 272 28.3
2016-Jul-01 17:36 273 28.9
2016-Jul-01 17:31 273 28.9
2016-Jul-01 17:26 274 28.9
2016-Jul-01 17:21 288 28.9
2016-Jul-01 17:11 248 28.9
2016-Jul-01 17:06 240 28.9
2016-Jul-01 17:01 287 28.9
2016-Jul-01 16:56 270 28.9
2016-Jul-01 16:46 257 28.9
2016-Jul-01 16:41 260 28.9
2016-Jul-01 16:36 256 28.9
2016-Jul-01 16:26 205 28.3
2016-Jul-01 16:21 185 28.3
2016-Jul-01 16:16 176 28.9
2016-Jul-01 16:06 256 28.3
2016-Jul-01 16:01 250 27.2
2016-Jul-01 15:56 252 27.8
2016-Jul-01 15:51 276 28.3
2016-Jul-01 15:41 257 28.9
2016-Jul-01 15:36 250 28.9
2016-Jul-01 15:31 262 28.9
2016-Jul-01 15:21 265 28.3
2016-Jul-01 15:16 279 28.9
2016-Jul-01 15:11 267 28.3
2016-Jul-01 15:01 225 28.9
2016-Jul-01 14:56 235 28.9
2016-Jul-01 14:51 242 28.3
2016-Jul-01 14:41 248 27.8
2016-Jul-01 14:36 221 27.8
2016-Jul-01 14:31 221 28.3
2016-Jul-01 14:21 265 28.9
2016-Jul-01 14:16 246 28.3
2016-Jul-01 14:06 261 28.3
2016-Jul-01 14:01 258 27.8
2016-Jul-01 13:56 257 28.3
2016-Jul-01 13:46 256 28.3
2016-Jul-01 13:41 259 27.2
2016-Jul-01 13:36 211 26.7
2016-Jul-01 13:31 197 26.7
2016-Jul-01 13:26 178 27.2
2016-Jul-01 13:21 221 27.2
2016-Jul-01 13:11 221 27.8
2016-Jul-01 13:06 236 28.3
2016-Jul-01 13:01 216 28.3
2016-Jul-01 12:51 173 27.8
2016-Jul-01 12:46 244 27.8
2016-Jul-01 12:36 173 27.2
2016-Jul-01 12:31 168 27.2
2016-Jul-01 12:26 260 27.2
2016-Jul-01 12:16 249 26.7
2016-Jul-01 12:11 249 26.7
2016-Jul-01 12:06 244 27.2
2016-Jul-01 11:56 269 26.7
2016-Jul-01 11:51 269 27.2
2016-Jul-01 11:46 257 27.2
2016-Jul-01 11:36 244 26.1
2016-Jul-01 11:31 244 25.6
2016-Jul-01 11:26 240 25.6
2016-Jul-01 11:16 241 25.6
2016-Jul-01 11:11 240 25.6
2016-Jul-01 11:06 240 26.7
2016-Jul-01 10:56 243 26.1
2016-Jul-01 10:51 263 26.1
2016-Jul-01 10:46 229 26.1
2016-Jul-01 10:36 117 25.6
2016-Jul-01 10:31 117 25.6
2016-Jul-01 10:26 116 25.6
2016-Jul-01 10:16 117 25.0
2016-Jul-01 10:11 117 25.0
2016-Jul-01 10:06 117 25.0
2016-Jul-01 10:01 117 25.0
2016-Jul-01 09:51 118 24.4
2016-Jul-01 09:46 117 24.4
2016-Jul-01 09:41 117 24.4
2016-Jul-01 09:31 117 23.9
2016-Jul-01 09:26 117 23.9
2016-Jul-01 09:21 117 23.9
2016-Jul-01 09:11 117 23.3
2016-Jul-01 09:06 116 23.3
2016-Jul-01 09:01 117 22.8
2016-Jul-01 08:56 117 22.8
2016-Jul-01 08:46 117 22.2
2016-Jul-01 08:41 117 22.2
2016-Jul-01 08:36 117 22.2
2016-Jul-01 08:31 117 22.2
2016-Jul-01 08:21 117 21.7
2016-Jul-01 08:16 117 21.1
2016-Jul-01 08:11 117 21.1
2016-Jul-01 08:01 117 21.1
2016-Jul-01 07:56 118 21.1
2016-Jul-01 07:51 117 20.6
2016-Jul-01 07:46 117 20.6
2016-Jul-01 07:36 117 20.6
2016-Jul-01 07:31 117 20.6
2016-Jul-01 07:26 117 20.6
2016-Jul-01 07:16 117 20.6
2016-Jul-01 07:11 117 20.0
2016-Jul-01 07:06 117 20.0
2016-Jul-01 07:01 117 19.4
2016-Jul-01 06:56 118 18.9
2016-Jul-01 06:46 117 18.3
2016-Jul-01 06:41 116 17.8
2016-Jul-01 06:36 117 17.2
2016-Jul-01 06:26 117 16.1
2016-Jul-01 06:21 117 15.6
2016-Jul-01 06:16 117 15.0
2016-Jul-01 06:06 116 13.9
2016-Jul-01 06:01 117 13.3
2016-Jul-01 05:56 117 13.3
2016-Jul-01 05:51 117 12.8
2016-Jul-01 05:41 117 12.2
2016-Jul-01 05:36 117 12.2
2016-Jul-01 05:31 117 12.2
2016-Jul-01 05:21 117 12.2
2016-Jul-01 05:16 117 12.2
2016-Jul-01 05:11 117 12.2
2016-Jul-01 05:06 115 12.2
2016-Jul-01 04:56 117 12.2
2016-Jul-01 04:51 117 12.2
2016-Jul-01 04:46 117 12.2
2016-Jul-01 04:36 117 12.2
2016-Jul-01 04:31 117 12.2
2016-Jul-01 04:26 118 12.2
2016-Jul-01 04:16 117 12.2
2016-Jul-01 04:11 117 12.2
2016-Jul-01 04:01 117 12.2
2016-Jul-01 03:56 117 12.2
2016-Jul-01 03:51 117 12.2
2016-Jul-01 03:46 117 12.2
2016-Jul-01 03:36 117 11.7
2016-Jul-01 03:31 117 11.7
2016-Jul-01 03:26 116 11.7
2016-Jul-01 03:16 116 11.7
2016-Jul-01 03:11 117 11.7
2016-Jul-01 03:06 117 12.2
2016-Jul-01 02:56 117 12.2
2016-Jul-01 02:51 117 12.8
2016-Jul-01 02:46 117 12.8
2016-Jul-01 02:36 117 13.3
2016-Jul-01 02:31 118 13.3
2016-Jul-01 02:26 117 13.3
2016-Jul-01 02:16 117 13.9
2016-Jul-01 02:11 117 13.9
2016-Jul-01 02:06 116 14.4
2016-Jul-01 02:01 117 14.4
2016-Jul-01 01:51 117 15.6
2016-Jul-01 01:46 117 15.6
2016-Jul-01 01:41 116 16.1
2016-Jul-01 01:36 117 16.1
2016-Jul-01 01:31 117 16.7
2016-Jul-01 01:21 116 16.7
2016-Jul-01 01:16 116 16.7
2016-Jul-01 01:11 117 16.7
2016-Jul-01 01:01 117 16.7
2016-Jul-01 00:51 117 16.7
2016-Jul-01 00:46 117 16.7
2016-Jul-01 00:41 116 17.2
2016-Jul-01 00:31 116 17.8
2016-Jul-01 00:26 116 17.8
2016-Jul-01 00:21 117 18.3
2016-Jul-01 00:06 128 18.3
2016-Jul-01 00:01 130 18.3
2016-Jun-30 23:56 129 18.3
2016-Jun-30 23:46 129 18.3
2016-Jun-30 23:36 129 18.3
2016-Jun-30 23:31 129 18.3
2016-Jun-30 23:26 129 18.3
2016-Jun-30 23:16 129 18.3
2016-Jun-30 23:11 129 18.9
2016-Jun-30 23:06 128 18.9
2016-Jun-30 23:01 129 18.9
2016-Jun-30 22:56 129 18.9
2016-Jun-30 22:51 133 18.9
2016-Jun-30 22:46 132 18.9
2016-Jun-30 22:41 132 18.9
2016-Jun-30 22:31 134 18.9
2016-Jun-30 22:26 138 18.9
2016-Jun-30 22:21 139 18.3
2016-Jun-30 22:16 152 18.3
2016-Jun-30 22:11 154 18.3
2016-Jun-30 22:06 158 17.8
2016-Jun-30 21:56 234 17.8
2016-Jun-30 21:51 234 17.2
2016-Jun-30 21:46 234 17.2
2016-Jun-30 21:36 233 16.7
2016-Jun-30 21:31 234 16.1
2016-Jun-30 21:26 234 15.6
2016-Jun-30 21:21 234 15.6
2016-Jun-30 21:11 234 15.6
2016-Jun-30 21:06 234 16.1
2016-Jun-30 21:01 234 16.1
2016-Jun-30 20:56 234 15.6
2016-Jun-30 20:51 234 15.6
2016-Jun-30 20:41 231 15.6
2016-Jun-30 20:36 230 16.1
2016-Jun-30 20:26 230 16.1
2016-Jun-30 20:21 229 16.7
2016-Jun-30 20:16 231 16.7
2016-Jun-30 20:11 231 17.2
2016-Jun-30 20:01 232 17.8
2016-Jun-30 19:56 230 18.3
2016-Jun-30 19:51 231 18.3
2016-Jun-30 19:46 231 18.9
2016-Jun-30 19:36 231 19.4
2016-Jun-30 19:31 231 20.0
2016-Jun-30 19:26 230 20.6
2016-Jun-30 19:16 231 22.2
2016-Jun-30 19:11 230 22.8
2016-Jun-30 19:06 231 23.3
2016-Jun-30 19:01 231 24.4
2016-Jun-30 18:51 231 25.0
2016-Jun-30 18:46 231 25.6
2016-Jun-30 18:41 230 26.1
2016-Jun-30 18:36 230 26.1
2016-Jun-30 18:26 231 26.7
2016-Jun-30 18:21 232 27.2
2016-Jun-30 18:16 230 27.2
2016-Jun-30 18:11 231 27.8
2016-Jun-30 18:06 230 27.8
2016-Jun-30 17:56 230 28.3
2016-Jun-30 17:51 231 27.8
2016-Jun-30 17:46 231 27.8
2016-Jun-30 17:36 231 28.3
2016-Jun-30 17:31 231 28.3
2016-Jun-30 17:26 202 28.3
2016-Jun-30 17:16 204 28.3
2016-Jun-30 17:11 203 28.9
2016-Jun-30 17:06 203 28.9
2016-Jun-30 16:56 202 28.3
2016-Jun-30 16:51 203 28.3
2016-Jun-30 16:46 202 28.3
2016-Jun-30 16:41 202 28.3
2016-Jun-30 16:31 203 28.3
2016-Jun-30 16:26 193 28.3
2016-Jun-30 16:21 194 28.3
2016-Jun-30 16:11 193 27.8
2016-Jun-30 16:01 178 27.2
2016-Jun-30 15:56 240 27.8
2016-Jun-30 15:51 238 28.3
2016-Jun-30 15:46 235 27.8
2016-Jun-30 15:41 183 27.8
2016-Jun-30 15:31 279 27.8
2016-Jun-30 15:26 247 27.8
2016-Jun-30 15:21 247 28.3
2016-Jun-30 15:11 283 28.3
2016-Jun-30 15:06 281 27.8
2016-Jun-30 15:01 281 27.8
2016-Jun-30 14:56 282 27.8
2016-Jun-30 14:46 206 27.8
2016-Jun-30 14:41 240 27.8
2016-Jun-30 14:36 240 28.3
2016-Jun-30 14:27 247 27.8
2016-Jun-30 14:16 204 27.8
2016-Jun-30 14:11 231 27.8
2016-Jun-30 14:01 232 27.8
2016-Jun-30 13:56 254 27.2
2016-Jun-30 13:51 261 27.2
2016-Jun-30 13:46 262 27.2
2016-Jun-30 13:36 173 27.2
2016-Jun-30 13:31 173 27.2
2016-Jun-30 13:26 230 27.2
2016-Jun-30 13:16 229 26.1
2016-Jun-30 13:11 225 26.1
2016-Jun-30 13:06 245 26.7
2016-Jun-30 12:56 239 26.1
2016-Jun-30 12:51 240 26.1
2016-Jun-30 12:46 242 26.1
2016-Jun-30 12:36 239 25.6
2016-Jun-30 12:31 253 26.1
2016-Jun-30 12:26 255 26.7
2016-Jun-30 12:21 234 26.7
2016-Jun-30 12:11 257 26.1
2016-Jun-30 12:06 257 26.1
2016-Jun-30 12:01 258 26.1
2016-Jun-30 11:51 260 26.1
2016-Jun-30 11:41 269 25.6
2016-Jun-30 11:36 262 25.6
2016-Jun-30 11:31 273 25.6
2016-Jun-30 11:26 235 25.0
2016-Jun-30 11:16 235 25.0
2016-Jun-30 11:11 234 25.0
2016-Jun-30 11:06 088 24.4
2016-Jun-30 11:01 087 23.9
2016-Jun-30 10:56 088 24.4
2016-Jun-30 10:46 087 23.9
2016-Jun-30 10:41 088 23.9
2016-Jun-30 10:36 088 23.9
2016-Jun-30 10:26 088 23.9
2016-Jun-30 10:16 088 23.3
2016-Jun-30 10:11 086 23.3
2016-Jun-30 10:06 088 22.8
2016-Jun-30 10:01 087 22.8
2016-Jun-30 09:56 087 22.8
2016-Jun-30 09:46 088 22.8
2016-Jun-30 09:41 087 22.8
2016-Jun-30 09:36 087 22.8
2016-Jun-30 09:26 088 22.8
2016-Jun-30 09:21 087 22.2
2016-Jun-30 09:16 087 22.2
2016-Jun-30 09:06 087 21.7
2016-Jun-30 09:01 088 21.7
2016-Jun-30 08:56 087 21.7
2016-Jun-30 08:46 087 21.7
2016-Jun-30 08:41 087 21.1
2016-Jun-30 08:36 087 21.1
2016-Jun-30 08:31 085 21.1
2016-Jun-30 08:26 087 21.1
2016-Jun-30 08:16 086 21.1
2016-Jun-30 08:11 088 21.1
2016-Jun-30 08:01 086 20.6
2016-Jun-30 07:56 087 20.0
2016-Jun-30 07:51 087 20.0
2016-Jun-30 07:41 088 20.0
2016-Jun-30 07:36 087 19.4
2016-Jun-30 07:31 089 19.4
2016-Jun-30 07:21 088 18.9
2016-Jun-30 07:16 088 18.3
2016-Jun-30 07:11 089 17.8
2016-Jun-30 07:01 088 17.2
2016-Jun-30 06:56 087 16.7
2016-Jun-30 06:51 087 16.7
2016-Jun-30 06:46 087 16.7
2016-Jun-30 06:36 087 16.1
2016-Jun-30 06:31 088 16.1
2016-Jun-30 06:26 087 16.1
2016-Jun-30 06:16 087 15.0
2016-Jun-30 06:11 088 14.4
2016-Jun-30 06:06 087 13.3
2016-Jun-30 06:01 088 12.8
2016-Jun-30 05:51 088 12.2
2016-Jun-30 05:46 088 12.2
2016-Jun-30 05:41 088 11.7
2016-Jun-30 05:36 088 11.7
2016-Jun-30 05:26 088 11.1
2016-Jun-30 05:21 087 11.1
2016-Jun-30 05:16 088 11.1
2016-Jun-30 05:06 087 11.1
2016-Jun-30 05:01 087 11.1
2016-Jun-30 04:56 088 11.1
2016-Jun-30 04:46 087 11.1
2016-Jun-30 04:41 086 11.1
2016-Jun-30 04:36 088 11.1
2016-Jun-30 04:26 087 11.1
2016-Jun-30 04:21 088 11.1
2016-Jun-30 04:16 088 11.1
2016-Jun-30 04:06 086 11.1
2016-Jun-30 04:01 088 11.1